Time,TemperatureF,DewpointF,PressureIn,WindDirection,WindDirectionDegrees,WindSpeedMPH,WindSpeedGustMPH,Humidity,HourlyPrecipIn,Conditions,Clouds,dailyrainin,SoftwareType,DateUTC
2013-01-18 00:02:00,14.0,10.0,30.37,West,263,0.0,0.0,84,0.00,,,0.00,,2013-01-18 06:02:00,
2013-01-18 00:12:00,14.0,10.0,30.37,West,263,0.0,0.0,84,0.00,,,0.00,,2013-01-18 06:12:00,
2013-01-18 00:22:00,14.0,10.0,30.37,West,263,0.0,0.0,85,0.00,,,0.00,,2013-01-18 06:22:00,
2013-01-18 00:32:00,14.0,10.0,30.37,West,263,0.0,0.0,85,0.00,,,0.00,,2013-01-18 06:32:00,
2013-01-18 00:43:00,14.0,10.0,30.37,West,263,0.0,0.0,85,0.00,,,0.00,,2013-01-18 06:43:00,
2013-01-18 00:52:00,13.0,9.0,30.38,West,263,0.0,0.0,85,0.00,,,0.00,,2013-01-18 06:52:00,
2013-01-18 01:02:00,13.0,10.0,30.38,West,263,0.0,0.0,86,0.00,,,0.00,,2013-01-18 07:02:00,
2013-01-18 01:12:00,13.0,10.0,30.38,West,263,0.0,0.0,86,0.00,,,0.00,,2013-01-18 07:12:00,
2013-01-18 01:22:00,13.0,10.0,30.37,West,263,0.0,0.0,86,0.00,,,0.00,,2013-01-18 07:22:00,
2013-01-18 01:32:00,13.0,10.0,30.37,West,263,0.0,0.0,86,0.00,,,0.00,,2013-01-18 07:32:00,
2013-01-18 01:42:00,13.0,10.0,30.37,West,263,0.0,0.0,86,0.00,,,0.00,,2013-01-18 07:42:00,
2013-01-18 01:52:00,13.0,10.0,30.38,West,263,0.0,0.0,87,0.00,,,0.00,,2013-01-18 07:52:00,
2013-01-18 02:02:00,13.0,10.0,30.38,West,263,0.0,0.0,87,0.00,,,0.00,,2013-01-18 08:02:00,
2013-01-18 02:12:00,13.0,10.0,30.38,West,263,0.0,0.0,87,0.00,,,0.00,,2013-01-18 08:12:00,
2013-01-18 02:22:00,14.0,11.0,30.39,West,263,0.0,0.0,87,0.00,,,0.00,,2013-01-18 08:22:00,
2013-01-18 02:32:00,14.0,11.0,30.39,West,263,0.0,0.0,87,0.00,,,0.00,,2013-01-18 08:32:00,
2013-01-18 02:42:00,14.0,11.0,30.39,West,263,0.0,0.0,87,0.00,,,0.00,,2013-01-18 08:42:00,
2013-01-18 02:53:00,14.0,11.0,30.39,West,263,0.0,0.0,87,0.00,,,0.00,,2013-01-18 08:53:00,
2013-01-18 03:02:00,15.0,12.0,30.39,West,263,0.0,0.0,87,0.00,,,0.00,,2013-01-18 09:02:00,
2013-01-18 03:12:00,15.0,12.0,30.39,West,263,0.0,0.0,87,0.00,,,0.00,,2013-01-18 09:12:00,
2013-01-18 03:22:00,16.0,13.0,30.39,West,263,0.0,0.0,87,0.00,,,0.00,,2013-01-18 09:22:00,
2013-01-18 03:32:00,16.0,13.0,30.39,West,263,0.0,0.0,86,0.00,,,0.00,,2013-01-18 09:32:00,
2013-01-18 03:42:00,16.0,13.0,30.39,West,263,0.0,0.0,86,0.00,,,0.00,,2013-01-18 09:42:00,
2013-01-18 03:52:00,17.0,14.0,30.38,West,263,0.0,0.0,86,0.00,,,0.00,,2013-01-18 09:52:00,
2013-01-18 04:02:00,17.0,14.0,30.37,West,263,0.0,0.0,86,0.00,,,0.00,,2013-01-18 10:02:00,
2013-01-18 04:12:00,17.0,14.0,30.37,West,263,0.0,0.0,86,0.00,,,0.00,,2013-01-18 10:12:00,
2013-01-18 04:22:00,17.0,14.0,30.37,West,263,0.0,0.0,86,0.00,,,0.00,,2013-01-18 10:22:00,
2013-01-18 04:32:00,18.0,14.0,30.36,West,263,0.0,0.0,85,0.00,,,0.00,,2013-01-18 10:32:00,
2013-01-18 04:42:00,18.0,14.0,30.36,West,263,0.0,0.0,85,0.00,,,0.00,,2013-01-18 10:42:00,
2013-01-18 04:52:00,18.0,14.0,30.35,WSW,257,0.0,0.0,85,0.00,,,0.00,,2013-01-18 10:52:00,
2013-01-18 05:02:00,18.0,15.0,30.35,SE,144,0.0,0.0,86,0.00,,,0.00,,2013-01-18 11:02:00,
2013-01-18 05:12:00,18.0,15.0,30.35,SE,144,0.0,0.0,86,0.00,,,0.00,,2013-01-18 11:12:00,
2013-01-18 05:22:00,18.0,15.0,30.33,SE,144,0.0,0.0,86,0.00,,,0.00,,2013-01-18 11:22:00,
2013-01-18 05:32:00,18.0,14.0,30.33,SSE,159,0.0,1.0,85,0.00,,,0.00,,2013-01-18 11:32:00,
2013-01-18 05:42:00,18.0,14.0,30.33,SSE,159,0.0,1.0,85,0.00,,,0.00,,2013-01-18 11:42:00,
2013-01-18 05:53:00,18.0,14.0,30.32,SSE,161,0.0,2.0,85,0.00,,,0.00,,2013-01-18 11:53:00,
2013-01-18 06:02:00,19.0,15.0,30.32,SSE,160,1.0,2.0,84,0.00,,,0.00,,2013-01-18 12:02:00,
2013-01-18 06:12:00,19.0,15.0,30.32,SSE,160,1.0,2.0,84,0.00,,,0.00,,2013-01-18 12:12:00,
2013-01-18 06:22:00,19.0,15.0,30.32,SSE,152,0.0,1.0,84,0.00,,,0.00,,2013-01-18 12:22:00,
2013-01-18 06:33:00,19.0,15.0,30.32,SSE,152,0.0,0.0,84,0.00,,,0.00,,2013-01-18 12:33:00,
2013-01-18 06:42:00,19.0,15.0,30.32,SSE,152,0.0,0.0,84,0.00,,,0.00,,2013-01-18 12:42:00,
2013-01-18 06:53:00,19.0,15.0,30.31,SE,137,0.0,3.0,84,0.00,,,0.00,,2013-01-18 12:53:00,
2013-01-18 07:03:00,19.0,15.0,30.30,South,182,1.0,2.0,85,0.00,,,0.00,,2013-01-18 13:03:00,
2013-01-18 07:12:00,19.0,15.0,30.30,South,182,1.0,2.0,85,0.00,,,0.00,,2013-01-18 13:12:00,
2013-01-18 07:23:00,19.0,15.0,30.29,SE,142,0.0,3.0,85,0.00,,,0.00,,2013-01-18 13:23:00,
2013-01-18 07:33:00,20.0,16.0,30.29,SE,142,0.0,2.0,85,0.00,,,0.00,,2013-01-18 13:33:00,
2013-01-18 07:43:00,20.0,16.0,30.29,SE,142,0.0,2.0,85,0.00,,,0.00,,2013-01-18 13:43:00,
2013-01-18 07:53:00,20.0,16.0,30.30,SSE,165,0.0,3.0,86,0.00,,,0.00,,2013-01-18 13:53:00,
2013-01-18 08:03:00,20.0,16.0,30.30,SE,133,0.0,1.0,86,0.00,,,0.00,,2013-01-18 14:03:00,
2013-01-18 08:12:00,20.0,16.0,30.30,SE,133,0.0,1.0,86,0.00,,,0.00,,2013-01-18 14:12:00,
2013-01-18 08:22:00,21.0,17.0,30.29,South,185,0.0,4.0,86,0.00,,,0.00,,2013-01-18 14:22:00,
2013-01-18 08:33:00,22.0,18.0,30.28,ESE,115,0.0,2.0,86,0.00,,,0.00,,2013-01-18 14:33:00,
2013-01-18 08:42:00,22.0,18.0,30.28,ESE,115,0.0,2.0,86,0.00,,,0.00,,2013-01-18 14:42:00,
2013-01-18 08:53:00,22.0,18.0,30.27,NE,56,0.0,2.0,86,0.00,,,0.00,,2013-01-18 14:53:00,
2013-01-18 09:03:00,23.0,19.0,30.26,SSE,148,0.0,2.0,85,0.00,,,0.00,,2013-01-18 15:03:00,
2013-01-18 09:12:00,23.0,19.0,30.26,SSE,148,0.0,2.0,85,0.00,,,0.00,,2013-01-18 15:12:00,
2013-01-18 09:23:00,23.0,19.0,30.26,SSW,200,0.0,6.0,84,0.00,,,0.00,,2013-01-18 15:23:00,
2013-01-18 09:33:00,25.0,21.0,30.25,SE,128,1.0,4.0,83,0.00,,,0.00,,2013-01-18 15:33:00,
2013-01-18 09:43:00,25.0,21.0,30.25,SE,128,1.0,4.0,83,0.00,,,0.00,,2013-01-18 15:43:00,
2013-01-18 09:53:00,26.0,21.0,30.24,ESE,106,1.0,6.0,81,0.00,,,0.00,,2013-01-18 15:53:00,
2013-01-18 10:03:00,27.0,21.0,30.23,NNE,29,0.0,8.0,79,0.00,,,0.00,,2013-01-18 16:03:00,
2013-01-18 10:12:00,27.0,21.0,30.23,NNE,29,0.0,8.0,79,0.00,,,0.00,,2013-01-18 16:12:00,
2013-01-18 10:23:00,29.0,23.0,30.22,East,89,6.0,7.0,77,0.00,,,0.00,,2013-01-18 16:23:00,
2013-01-18 10:33:00,31.0,23.0,30.20,ESE,107,4.0,7.0,73,0.00,,,0.00,,2013-01-18 16:33:00,
2013-01-18 10:42:00,31.0,23.0,30.20,ESE,107,4.0,7.0,73,0.00,,,0.00,,2013-01-18 16:42:00,
2013-01-18 10:53:00,32.0,24.0,30.18,SSW,205,7.0,12.0,71,0.00,,,0.00,,2013-01-18 16:53:00,
2013-01-18 11:03:00,33.0,25.0,30.16,South,188,5.0,15.0,71,0.00,,,0.00,,2013-01-18 17:03:00,
2013-01-18 11:13:00,33.0,25.0,30.16,South,188,5.0,15.0,71,0.00,,,0.00,,2013-01-18 17:13:00,
2013-01-18 11:23:00,34.0,26.0,30.14,WSW,249,3.0,15.0,71,0.00,,,0.00,,2013-01-18 17:23:00,
2013-01-18 11:33:00,34.0,25.0,30.12,SE,142,9.0,14.0,69,0.00,,,0.00,,2013-01-18 17:33:00,
2013-01-18 11:42:00,34.0,25.0,30.12,SE,142,9.0,14.0,69,0.00,,,0.00,,2013-01-18 17:42:00,
2013-01-18 11:53:00,34.0,26.0,30.11,SW,235,10.0,20.0,71,0.00,,,0.00,,2013-01-18 17:53:00,
2013-01-18 12:03:00,36.0,27.0,30.08,WSW,241,6.0,14.0,70,0.00,,,0.00,,2013-01-18 18:03:00,
2013-01-18 12:13:00,36.0,27.0,30.08,WSW,241,6.0,14.0,70,0.00,,,0.00,,2013-01-18 18:13:00,
2013-01-18 12:23:00,36.0,27.0,30.07,WSW,256,7.0,18.0,69,0.00,,,0.00,,2013-01-18 18:23:00,
2013-01-18 12:33:00,37.0,27.0,30.06,WSW,241,7.0,20.0,68,0.00,,,0.00,,2013-01-18 18:33:00,
2013-01-18 12:43:00,37.0,27.0,30.06,WSW,241,7.0,20.0,68,0.00,,,0.00,,2013-01-18 18:43:00,
2013-01-18 12:52:00,38.0,29.0,30.04,West,259,7.0,20.0,70,0.00,,,0.00,,2013-01-18 18:52:00,
2013-01-18 13:03:00,38.0,29.0,30.01,WSW,248,8.0,26.0,70,0.01,,,0.01,,2013-01-18 19:03:00,
2013-01-18 13:12:00,38.0,29.0,30.01,WSW,248,8.0,26.0,70,0.01,,,0.01,,2013-01-18 19:12:00,
2013-01-18 13:22:00,38.0,29.0,30.00,South,176,7.0,13.0,70,0.01,,,0.01,,2013-01-18 19:22:00,
2013-01-18 13:33:00,38.0,29.0,29.99,ENE,67,4.0,14.0,71,0.01,,,0.01,,2013-01-18 19:33:00,
2013-01-18 13:42:00,38.0,29.0,29.99,ENE,67,4.0,14.0,71,0.01,,,0.01,,2013-01-18 19:42:00,
2013-01-18 13:53:00,38.0,30.0,29.98,SE,146,6.0,16.0,72,0.01,,,0.01,,2013-01-18 19:53:00,
2013-01-18 14:03:00,38.0,30.0,29.97,WSW,255,8.0,19.0,72,0.00,,,0.01,,2013-01-18 20:03:00,
2013-01-18 14:12:00,38.0,30.0,29.97,WSW,255,8.0,19.0,72,0.00,,,0.01,,2013-01-18 20:12:00,
2013-01-18 14:23:00,38.0,29.0,29.96,SSE,155,6.0,19.0,71,0.00,,,0.01,,2013-01-18 20:23:00,
2013-01-18 14:33:00,39.0,31.0,29.95,SSW,213,12.0,19.0,72,0.00,,,0.01,,2013-01-18 20:33:00,
2013-01-18 14:42:00,39.0,31.0,29.95,SSW,213,12.0,19.0,72,0.00,,,0.01,,2013-01-18 20:42:00,
2013-01-18 14:53:00,40.0,31.0,29.94,West,263,9.0,17.0,70,0.01,,,0.02,,2013-01-18 20:53:00,
2013-01-18 15:03:00,41.0,32.0,29.92,South,182,12.0,20.0,69,0.02,,,0.03,,2013-01-18 21:03:00,
2013-01-18 15:12:00,41.0,32.0,29.92,South,182,12.0,20.0,69,0.02,,,0.03,,2013-01-18 21:12:00,
2013-01-18 15:23:00,41.0,32.0,29.91,SW,225,8.0,13.0,69,0.03,,,0.04,,2013-01-18 21:23:00,
2013-01-18 15:33:00,40.0,31.0,29.89,West,271,10.0,27.0,70,0.02,,,0.04,,2013-01-18 21:33:00,
2013-01-18 15:42:00,40.0,31.0,29.89,West,271,10.0,27.0,70,0.02,,,0.04,,2013-01-18 21:42:00,
2013-01-18 15:53:00,40.0,31.0,29.90,SSW,210,12.0,19.0,70,0.02,,,0.04,,2013-01-18 21:53:00,
2013-01-18 16:03:00,40.0,31.0,29.91,West,265,3.0,15.0,71,0.02,,,0.05,,2013-01-18 22:03:00,
2013-01-18 16:12:00,40.0,31.0,29.91,West,265,3.0,15.0,71,0.02,,,0.05,,2013-01-18 22:12:00,
2013-01-18 16:23:00,40.0,32.0,29.90,SSW,196,10.0,20.0,72,0.03,,,0.06,,2013-01-18 22:23:00,
2013-01-18 16:33:00,40.0,32.0,29.90,SW,236,6.0,18.0,72,0.02,,,0.06,,2013-01-18 22:33:00,
2013-01-18 16:42:00,40.0,32.0,29.90,SW,236,6.0,18.0,72,0.02,,,0.06,,2013-01-18 22:42:00,
2013-01-18 16:52:00,39.0,31.0,29.90,SW,227,8.0,17.0,73,0.02,,,0.06,,2013-01-18 22:52:00,
2013-01-18 17:03:00,39.0,32.0,29.90,SSW,196,14.0,19.0,75,0.01,,,0.06,,2013-01-18 23:03:00,
2013-01-18 17:12:00,39.0,32.0,29.90,SSW,196,14.0,19.0,75,0.01,,,0.06,,2013-01-18 23:12:00,
2013-01-18 17:22:00,38.0,31.0,29.90,WSW,253,9.0,16.0,76,0.00,,,0.06,,2013-01-18 23:22:00,
2013-01-18 17:33:00,38.0,31.0,29.90,WSW,255,6.0,21.0,76,0.01,,,0.07,,2013-01-18 23:33:00,
2013-01-18 17:42:00,38.0,31.0,29.90,WSW,255,6.0,21.0,76,0.01,,,0.07,,2013-01-18 23:42:00,
2013-01-18 17:53:00,38.0,31.0,29.90,SW,217,8.0,28.0,77,0.01,,,0.07,,2013-01-18 23:53:00,
2013-01-18 18:02:00,38.0,32.0,29.90,West,268,7.0,15.0,78,0.01,,,0.07,,2013-01-19 00:02:00,
2013-01-18 18:12:00,38.0,32.0,29.90,West,268,7.0,15.0,78,0.01,,,0.07,,2013-01-19 00:12:00,
2013-01-18 18:22:00,38.0,32.0,29.90,SW,223,7.0,15.0,78,0.01,,,0.07,,2013-01-19 00:22:00,
2013-01-18 18:32:00,38.0,32.0,29.89,SSW,202,4.0,15.0,79,0.00,,,0.07,,2013-01-19 00:32:00,
2013-01-18 18:42:00,38.0,32.0,29.89,SSW,202,4.0,15.0,79,0.00,,,0.07,,2013-01-19 00:42:00,
2013-01-18 18:53:00,38.0,32.0,29.88,SW,217,9.0,15.0,79,0.00,,,0.07,,2013-01-19 00:53:00,
2013-01-18 19:02:00,38.0,32.0,29.89,WSW,244,5.0,12.0,79,0.01,,,0.08,,2013-01-19 01:02:00,
2013-01-18 19:12:00,38.0,32.0,29.89,WSW,244,5.0,12.0,79,0.01,,,0.08,,2013-01-19 01:12:00,
2013-01-18 19:22:00,37.0,31.0,29.89,SW,221,7.0,15.0,79,0.01,,,0.08,,2013-01-19 01:22:00,
2013-01-18 19:32:00,37.0,31.0,29.89,SW,220,5.0,21.0,80,0.01,,,0.08,,2013-01-19 01:32:00,
2013-01-18 19:42:00,37.0,31.0,29.89,SW,220,5.0,21.0,80,0.01,,,0.08,,2013-01-19 01:42:00,
2013-01-18 19:53:00,37.0,31.0,29.89,SE,137,8.0,13.0,80,0.01,,,0.08,,2013-01-19 01:53:00,
2013-01-18 20:02:00,37.0,31.0,29.89,SW,221,3.0,12.0,80,0.00,,,0.08,,2013-01-19 02:02:00,
2013-01-18 20:12:00,37.0,31.0,29.89,SW,221,3.0,12.0,80,0.00,,,0.08,,2013-01-19 02:12:00,
2013-01-18 20:22:00,37.0,31.0,29.88,NW,309,3.0,14.0,80,0.00,,,0.08,,2013-01-19 02:22:00,
2013-01-18 20:33:00,37.0,31.0,29.88,WSW,257,7.0,13.0,80,0.00,,,0.08,,2013-01-19 02:33:00,
2013-01-18 20:42:00,37.0,31.0,29.88,WSW,257,7.0,13.0,80,0.00,,,0.08,,2013-01-19 02:42:00,
2013-01-18 20:53:00,37.0,31.0,29.88,WNW,282,7.0,15.0,79,0.00,,,0.08,,2013-01-19 02:53:00,
2013-01-18 21:03:00,37.0,31.0,29.88,SW,235,6.0,11.0,79,0.00,,,0.08,,2013-01-19 03:03:00,
2013-01-18 21:12:00,37.0,31.0,29.88,SW,235,6.0,11.0,79,0.00,,,0.08,,2013-01-19 03:12:00,
2013-01-18 21:22:00,37.0,31.0,29.86,WSW,252,7.0,12.0,78,0.00,,,0.08,,2013-01-19 03:22:00,
2013-01-18 21:32:00,37.0,31.0,29.86,SW,236,8.0,16.0,78,0.00,,,0.08,,2013-01-19 03:32:00,
2013-01-18 21:43:00,37.0,31.0,29.86,SW,236,8.0,16.0,78,0.00,,,0.08,,2013-01-19 03:43:00,
2013-01-18 21:52:00,37.0,30.0,29.85,WSW,257,10.0,21.0,77,0.00,,,0.08,,2013-01-19 03:52:00,
2013-01-18 22:02:00,37.0,30.0,29.86,WSW,254,3.0,10.0,77,0.00,,,0.08,,2013-01-19 04:02:00,
2013-01-18 22:12:00,37.0,30.0,29.86,WSW,254,3.0,10.0,77,0.00,,,0.08,,2013-01-19 04:12:00,
2013-01-18 22:22:00,37.0,31.0,29.85,WSW,247,6.0,11.0,78,0.00,,,0.08,,2013-01-19 04:22:00,
2013-01-18 22:32:00,37.0,31.0,29.85,NW,308,5.0,10.0,78,0.00,,,0.08,,2013-01-19 04:32:00,
2013-01-18 22:42:00,37.0,31.0,29.85,NW,308,5.0,10.0,78,0.00,,,0.08,,2013-01-19 04:42:00,
2013-01-18 22:52:00,37.0,31.0,29.84,WSW,252,7.0,8.0,78,0.00,,,0.08,,2013-01-19 04:52:00,
2013-01-18 23:03:00,37.0,30.0,29.85,West,263,3.0,13.0,77,0.00,,,0.08,,2013-01-19 05:03:00,
2013-01-18 23:12:00,37.0,30.0,29.85,West,263,3.0,13.0,77,0.00,,,0.08,,2013-01-19 05:12:00,
2013-01-18 23:22:00,37.0,31.0,29.85,West,259,3.0,14.0,78,0.00,,,0.08,,2013-01-19 05:22:00,
2013-01-18 23:32:00,37.0,31.0,29.85,West,269,4.0,9.0,78,0.00,,,0.08,,2013-01-19 05:32:00,
2013-01-18 23:42:00,37.0,31.0,29.85,West,269,4.0,9.0,78,0.00,,,0.08,,2013-01-19 05:42:00,
2013-01-18 23:52:00,37.0,31.0,29.84,SW,233,4.0,16.0,78,0.00,,,0.08,,2013-01-19 05:52:00,